Time,TemperatureF,DewpointF,PressureIn,WindDirection,WindDirectionDegrees,WindSpeedMPH,WindSpeedGustMPH,Humidity,HourlyPrecipIn,Conditions,Clouds,dailyrainin,SoftwareType,DateUTC
2013-07-21 00:06:00,73.6,67.8,29.75,North,0,0.0,-999.0,82,-99.99,,,0.00,Acu-Link.com,2013-07-21 04:06:00,
2013-07-21 00:21:00,73.6,67.4,29.74,SSW,202,0.0,-999.0,81,-99.99,,,0.00,Acu-Link.com,2013-07-21 04:21:00,
2013-07-21 00:36:00,73.6,67.4,29.75,WNW,292,2.7,-999.0,81,-99.99,,,0.00,Acu-Link.com,2013-07-21 04:36:00,
2013-07-21 00:51:00,73.6,67.4,29.76,WSW,247,0.0,-999.0,81,-99.99,,,0.00,Acu-Link.com,2013-07-21 04:51:00,
2013-07-21 01:06:00,73.4,67.2,29.76,SSE,157,0.0,-999.0,81,-99.99,,,0.00,Acu-Link.com,2013-07-21 05:06:00,
2013-07-21 01:21:00,72.7,66.9,29.75,WNW,292,0.0,-999.0,82,-99.99,,,0.00,Acu-Link.com,2013-07-21 05:21:00,
2013-07-21 01:36:00,72.5,67.0,29.75,ENE,67,0.0,-999.0,83,-99.99,,,0.00,Acu-Link.com,2013-07-21 05:36:00,
2013-07-21 01:52:00,72.1,67.0,29.76,WSW,247,0.0,-999.0,84,-99.99,,,0.00,Acu-Link.com,2013-07-21 05:52:00,
2013-07-21 02:07:00,72.1,67.0,29.75,South,180,0.0,-999.0,84,-99.99,,,0.00,Acu-Link.com,2013-07-21 06:07:00,
2013-07-21 02:22:00,71.1,66.0,29.77,NNW,337,3.7,-999.0,84,-99.99,,,0.00,Acu-Link.com,2013-07-21 06:22:00,
2013-07-21 02:37:00,71.1,66.4,29.76,ESE,112,0.0,-999.0,85,-99.99,,,0.00,Acu-Link.com,2013-07-21 06:37:00,
2013-07-21 02:52:00,70.9,66.2,29.76,WSW,247,0.0,-999.0,85,-99.99,,,0.00,Acu-Link.com,2013-07-21 06:52:00,
2013-07-21 03:07:00,70.5,66.4,29.77,West,270,1.1,-999.0,87,-99.99,,,0.00,Acu-Link.com,2013-07-21 07:07:00,
2013-07-21 03:22:00,70.5,66.8,29.76,West,270,4.2,-999.0,88,-99.99,,,0.00,Acu-Link.com,2013-07-21 07:22:00,
2013-07-21 03:37:00,70.7,66.3,29.78,SW,225,0.0,-999.0,86,-99.99,,,0.00,Acu-Link.com,2013-07-21 07:37:00,
2013-07-21 03:52:00,70.5,66.4,29.77,WNW,292,1.7,-999.0,87,-99.99,,,0.00,Acu-Link.com,2013-07-21 07:52:00,
2013-07-21 04:09:00,70.2,65.8,29.78,West,270,1.7,-999.0,86,-99.99,,,0.00,Acu-Link.com,2013-07-21 08:09:00,
2013-07-21 04:24:00,69.8,65.4,29.77,North,0,0.0,-999.0,86,-99.99,,,0.00,Acu-Link.com,2013-07-21 08:24:00,
2013-07-21 04:39:00,69.6,65.6,29.77,SSW,202,2.2,-999.0,87,-99.99,,,0.00,Acu-Link.com,2013-07-21 08:39:00,
2013-07-21 04:54:00,69.6,65.6,29.77,SSE,157,0.0,-999.0,87,-99.99,,,0.00,Acu-Link.com,2013-07-21 08:54:00,
2013-07-21 05:10:00,69.1,65.7,29.77,West,270,2.2,-999.0,89,-99.99,,,0.00,Acu-Link.com,2013-07-21 09:10:00,
2013-07-21 05:25:00,68.7,65.3,29.78,WNW,292,1.7,-999.0,89,-99.99,,,0.00,Acu-Link.com,2013-07-21 09:25:00,
2013-07-21 05:40:00,68.2,65.5,29.79,South,180,0.0,-999.0,91,-99.99,,,0.00,Acu-Link.com,2013-07-21 09:40:00,
2013-07-21 05:55:00,68.4,65.7,29.80,West,270,0.0,-999.0,91,-99.99,,,0.00,Acu-Link.com,2013-07-21 09:55:00,
2013-07-21 06:10:00,68.2,65.5,29.79,SW,225,0.0,-999.0,91,-99.99,,,0.00,Acu-Link.com,2013-07-21 10:10:00,
2013-07-21 06:25:00,68.2,65.5,29.80,ESE,112,0.0,-999.0,91,-99.99,,,0.00,Acu-Link.com,2013-07-21 10:25:00,
2013-07-21 06:40:00,68.4,65.7,29.80,WNW,292,1.7,-999.0,91,-99.99,,,0.00,Acu-Link.com,2013-07-21 10:40:00,
2013-07-21 06:56:00,68.5,65.8,29.81,West,270,3.2,-999.0,91,-99.99,,,0.00,Acu-Link.com,2013-07-21 10:56:00,
2013-07-21 07:11:00,69.1,66.0,29.81,West,270,1.1,-999.0,90,-99.99,,,0.00,Acu-Link.com,2013-07-21 11:11:00,
2013-07-21 07:26:00,69.3,65.9,29.82,ESE,112,0.0,-999.0,89,-99.99,,,0.00,Acu-Link.com,2013-07-21 11:26:00,
2013-07-21 07:41:00,69.8,65.7,29.82,NNW,337,2.7,-999.0,87,-99.99,,,0.00,Acu-Link.com,2013-07-21 11:41:00,
2013-07-21 07:56:00,71.2,66.5,29.82,West,270,3.7,-999.0,85,-99.99,,,0.00,Acu-Link.com,2013-07-21 11:56:00,
2013-07-21 08:11:00,71.6,66.5,29.82,WNW,292,3.7,-999.0,84,-99.99,,,0.00,Acu-Link.com,2013-07-21 12:11:00,
2013-07-21 08:27:00,72.7,66.9,29.83,West,270,5.3,-999.0,82,-99.99,,,0.00,Acu-Link.com,2013-07-21 12:27:00,
2013-07-21 08:42:00,72.1,66.3,29.83,West,270,1.7,-999.0,82,-99.99,,,0.00,Acu-Link.com,2013-07-21 12:42:00,
2013-07-21 08:57:00,72.9,67.1,29.82,NW,315,1.7,-999.0,82,-99.99,,,0.00,Acu-Link.com,2013-07-21 12:57:00,
2013-07-21 09:12:00,73.8,67.2,29.82,SW,225,0.0,-999.0,80,-99.99,,,0.00,Acu-Link.com,2013-07-21 13:12:00,
2013-07-21 09:27:00,75.0,67.3,29.82,West,270,2.7,-999.0,77,-99.99,,,0.00,Acu-Link.com,2013-07-21 13:27:00,
2013-07-21 09:42:00,75.6,67.9,29.83,West,270,1.1,-999.0,77,-99.99,,,0.00,Acu-Link.com,2013-07-21 13:42:00,
2013-07-21 09:57:00,77.0,68.1,29.82,East,90,0.0,-999.0,74,-99.99,,,0.00,Acu-Link.com,2013-07-21 13:57:00,
2013-07-21 10:12:00,78.6,68.4,29.82,SE,135,0.0,-999.0,71,-99.99,,,0.00,Acu-Link.com,2013-07-21 14:12:00,
2013-07-21 10:27:00,79.7,68.6,29.82,ESE,112,0.0,-999.0,69,-99.99,,,0.00,Acu-Link.com,2013-07-21 14:27:00,
2013-07-21 10:42:00,81.0,67.7,29.82,North,0,0.0,-999.0,64,-99.99,,,0.00,Acu-Link.com,2013-07-21 14:42:00,
2013-07-21 10:58:00,81.5,67.7,29.82,WNW,292,2.7,-999.0,63,-99.99,,,0.00,Acu-Link.com,2013-07-21 14:58:00,
2013-07-21 11:13:00,79.9,66.2,29.82,WNW,292,1.7,-999.0,63,-99.99,,,0.00,Acu-Link.com,2013-07-21 15:13:00,
2013-07-21 11:28:00,81.1,63.9,29.83,NNE,22,2.2,-999.0,56,-99.99,,,0.00,Acu-Link.com,2013-07-21 15:28:00,
2013-07-21 11:43:00,83.1,64.7,29.83,SW,225,1.7,-999.0,54,-99.99,,,0.00,Acu-Link.com,2013-07-21 15:43:00,
2013-07-21 11:58:00,81.7,64.5,29.83,East,90,0.0,-999.0,56,-99.99,,,0.00,Acu-Link.com,2013-07-21 15:58:00,
2013-07-21 12:13:00,84.0,66.1,29.82,ESE,112,0.0,-999.0,55,-99.99,,,0.00,Acu-Link.com,2013-07-21 16:13:00,
2013-07-21 12:28:00,84.9,61.8,29.82,WNW,292,2.2,-999.0,46,-99.99,,,0.00,Acu-Link.com,2013-07-21 16:28:00,
2013-07-21 12:44:00,85.3,61.5,29.82,West,270,2.7,-999.0,45,-99.99,,,0.00,Acu-Link.com,2013-07-21 16:44:00,
2013-07-21 12:59:00,86.0,63.4,29.81,South,180,2.2,-999.0,47,-99.99,,,0.00,Acu-Link.com,2013-07-21 16:59:00,
2013-07-21 13:14:00,86.5,63.2,29.80,East,90,2.2,-999.0,46,-99.99,,,0.00,Acu-Link.com,2013-07-21 17:14:00,
2013-07-21 13:29:00,86.4,62.5,29.80,ESE,112,1.7,-999.0,45,-99.99,,,0.00,Acu-Link.com,2013-07-21 17:29:00,
2013-07-21 13:44:00,87.1,60.5,29.80,ESE,112,0.0,-999.0,41,-99.99,,,0.00,Acu-Link.com,2013-07-21 17:44:00,
2013-07-21 14:00:00,86.9,61.7,29.80,ESE,112,0.0,-999.0,43,-99.99,,,0.00,Acu-Link.com,2013-07-21 18:00:00,
2013-07-21 14:15:00,88.9,62.8,29.79,WSW,247,1.1,-999.0,42,-99.99,,,0.00,Acu-Link.com,2013-07-21 18:15:00,
2013-07-21 14:30:00,88.3,61.6,29.79,ESE,112,2.7,-999.0,41,-99.99,,,0.00,Acu-Link.com,2013-07-21 18:30:00,
2013-07-21 14:45:00,90.7,60.8,29.78,South,180,1.1,-999.0,37,-99.99,,,0.00,Acu-Link.com,2013-07-21 18:45:00,
2013-07-21 15:00:00,89.6,56.6,29.79,South,180,2.2,-999.0,33,-99.99,,,0.00,Acu-Link.com,2013-07-21 19:00:00,
2013-07-21 15:15:00,89.1,58.6,29.78,ESE,112,0.0,-999.0,36,-99.99,,,0.00,Acu-Link.com,2013-07-21 19:15:00,
2013-07-21 15:30:00,90.5,59.9,29.76,West,270,0.0,-999.0,36,-99.99,,,0.00,Acu-Link.com,2013-07-21 19:30:00,
2013-07-21 15:45:00,89.4,57.3,29.76,ENE,67,0.0,-999.0,34,-99.99,,,0.00,Acu-Link.com,2013-07-21 19:45:00,
2013-07-21 16:00:00,88.3,58.7,29.76,ESE,112,2.7,-999.0,37,-99.99,,,0.00,Acu-Link.com,2013-07-21 20:00:00,
2013-07-21 16:15:00,88.3,60.2,29.76,NNE,22,3.2,-999.0,39,-99.99,,,0.00,Acu-Link.com,2013-07-21 20:15:00,
2013-07-21 16:31:00,87.8,59.7,29.75,NNE,22,0.0,-999.0,39,-99.99,,,0.00,Acu-Link.com,2013-07-21 20:31:00,
2013-07-21 16:46:00,87.6,64.8,29.75,West,270,0.0,-999.0,47,-99.99,,,0.00,Acu-Link.com,2013-07-21 20:46:00,
2013-07-21 17:01:00,86.9,64.8,29.75,ENE,67,0.0,-999.0,48,-99.99,,,0.00,Acu-Link.com,2013-07-21 21:01:00,
2013-07-21 17:16:00,87.3,64.6,29.75,North,0,1.7,-999.0,47,-99.99,,,0.00,Acu-Link.com,2013-07-21 21:16:00,
2013-07-21 17:31:00,88.0,66.4,29.76,ENE,67,1.1,-999.0,49,-99.99,,,0.00,Acu-Link.com,2013-07-21 21:31:00,
2013-07-21 17:46:00,91.8,67.4,29.76,NE,45,0.0,-999.0,45,-99.99,,,0.00,Acu-Link.com,2013-07-21 21:46:00,
2013-07-21 18:01:00,92.1,67.0,29.75,North,0,1.7,-999.0,44,-99.99,,,0.00,Acu-Link.com,2013-07-21 22:01:00,
2013-07-21 18:16:00,93.0,65.8,29.75,ESE,112,0.0,-999.0,41,-99.99,,,0.00,Acu-Link.com,2013-07-21 22:16:00,
2013-07-21 18:31:00,92.5,66.7,29.74,NE,45,2.7,-999.0,43,-99.99,,,0.00,Acu-Link.com,2013-07-21 22:31:00,
2013-07-21 18:47:00,92.1,66.3,29.74,NE,45,0.0,-999.0,43,-99.99,,,0.00,Acu-Link.com,2013-07-21 22:47:00,
2013-07-21 19:02:00,92.1,67.0,29.75,NNE,22,1.7,-999.0,44,-99.99,,,0.00,Acu-Link.com,2013-07-21 23:02:00,
2013-07-21 19:17:00,91.2,68.1,29.75,North,0,1.1,-999.0,47,-99.99,,,0.00,Acu-Link.com,2013-07-21 23:17:00,
2013-07-21 19:32:00,89.1,68.0,29.75,NE,45,0.0,-999.0,50,-99.99,,,0.00,Acu-Link.com,2013-07-21 23:32:00,
2013-07-21 19:47:00,87.1,69.5,29.75,NW,315,4.2,-999.0,56,-99.99,,,0.00,Acu-Link.com,2013-07-21 23:47:00,
2013-07-21 20:02:00,83.7,68.8,29.76,WNW,292,2.2,-999.0,61,-99.99,,,0.00,Acu-Link.com,2013-07-22 00:02:00,
2013-07-21 20:17:00,82.2,68.3,29.76,West,270,1.1,-999.0,63,-99.99,,,0.00,Acu-Link.com,2013-07-22 00:17:00,
2013-07-21 20:32:00,80.6,67.7,29.77,NW,315,0.0,-999.0,65,-99.99,,,0.00,Acu-Link.com,2013-07-22 00:32:00,
2013-07-21 20:47:00,79.3,67.8,29.77,WNW,292,1.7,-999.0,68,-99.99,,,0.00,Acu-Link.com,2013-07-22 00:47:00,
2013-07-21 21:03:00,78.1,67.5,29.78,WSW,247,2.2,-999.0,70,-99.99,,,0.00,Acu-Link.com,2013-07-22 01:03:00,
2013-07-21 21:18:00,77.5,66.5,29.77,WNW,292,4.2,-999.0,69,-99.99,,,0.00,Acu-Link.com,2013-07-22 01:18:00,
2013-07-21 21:33:00,77.7,66.7,29.79,SSW,202,0.0,-999.0,69,-99.99,,,0.00,Acu-Link.com,2013-07-22 01:33:00,
2013-07-21 21:48:00,76.6,66.1,29.79,ESE,112,0.0,-999.0,70,-99.99,,,0.00,Acu-Link.com,2013-07-22 01:48:00,
2013-07-21 22:03:00,76.5,66.4,29.81,WNW,292,1.7,-999.0,71,-99.99,,,0.00,Acu-Link.com,2013-07-22 02:03:00,
2013-07-21 22:18:00,76.5,66.0,29.81,West,270,0.0,-999.0,70,-99.99,,,0.00,Acu-Link.com,2013-07-22 02:18:00,
2013-07-21 22:33:00,76.1,66.4,29.80,SSE,157,0.0,-999.0,72,-99.99,,,0.00,Acu-Link.com,2013-07-22 02:33:00,
2013-07-21 22:48:00,76.1,66.4,29.80,SE,135,0.0,-999.0,72,-99.99,,,0.00,Acu-Link.com,2013-07-22 02:48:00,
2013-07-21 23:03:00,75.9,66.6,29.81,East,90,0.0,-999.0,73,-99.99,,,0.00,Acu-Link.com,2013-07-22 03:03:00,
2013-07-21 23:19:00,76.1,66.4,29.82,West,270,2.2,-999.0,72,-99.99,,,0.00,Acu-Link.com,2013-07-22 03:19:00,
2013-07-21 23:34:00,76.1,66.0,29.81,SSW,202,0.0,-999.0,71,-99.99,,,0.00,Acu-Link.com,2013-07-22 03:34:00,
2013-07-21 23:49:00,75.6,65.9,29.81,NW,315,1.1,-999.0,72,-99.99,,,0.00,Acu-Link.com,2013-07-22 03:49:00,